Crosby, ND

4:56 AM CDT on August 27, 2016 (GMT -0500)
Crosby

Weather History for KD50 - March, 2013

Change the Weather History Date:

Tuesday, March 26, 2013

  Actual Average (KISN) Record (KISN)
Temperature  
Mean Temperature 8 °F 34 °F  
Max Temperature 26 °F 46 °F 74 °F (1999)
Min Temperature -9 °F 22 °F -15 °F (1914)
Degree Days  
Heating Degree Days 56 31  
Month to date heating degree days 960  
Since 1 July heating degree days 7728  
Cooling Degree Days 0 0  
Month to date cooling degree days 0  
Year to date cooling degree days 0  
Moisture  
Dew Point 4 °F    
Average Humidity 83    
Maximum Humidity 93    
Minimum Humidity 74    
Precipitation  
Precipitation 0.00 in 0.02 in 0.92 in (1910)
Month to date precipitation 0.58  
Year to date precipitation 1.56  
Sea Level Pressure  
Sea Level Pressure 30.12 in    
Wind  
Wind Speed 4 mph (ESE)    
Max Wind Speed 13 mph    
Max Gust Speed -    
Visibility 7 miles    
Events Fog , Snow    
T = Trace of Precipitation, MM = Missing Value Source: NWS Daily Summary

Daily Weather History Graph

Daily Weather History Graph

Search for Another Location

Airport or City:

Trip Planner

Search our weather history database for the weather conditions in past years. The results will help you decide how hot, cold, wet, or windy it might be!

Date:

Astronomy

Mar. 26, 2013 Rise Set
Actual Time 7:42 AM CDT 8:15 PM CDT
Civil Twilight 7:10 AM CDT 8:47 PM CDT
Nautical Twilight 6:33 AM CDT 9:25 PM CDT
Astronomical Twilight 5:53 AM CDT 10:04 PM CDT
Moon 7:56 PM CDT (3/26) 7:01 AM CDT (3/26)
Length of Visible Light 13h 36m
Length of Day
12h 32m
Waxing Gibbous, 99% of the Moon is Illuminated
Mar 26
Waxing Gibbous
Mar 27
Full
Apr 2
Last Quarter
Apr 10
New
Apr 18
First Quarter

Hourly Weather History & Observations

Time (CDT) Temp. Windchill Dew Point Humidity Pressure Visibility Wind Dir Wind Speed Gust Speed Precip Events Conditions
12:15 AM -7.6 °F - -11.2 °F 84% 30.22 in 0.2 mi Calm Calm - N/A Fog Light Freezing Fog
12:35 AM -4.0 °F -17.8 °F -9.4 °F 78% 30.22 in 0.2 mi ESE 6.9 mph - N/A   Haze
12:55 AM -4.0 °F -14.6 °F -9.4 °F 78% 30.22 in 0.2 mi ESE 4.6 mph - N/A   Haze
1:15 AM -4.0 °F -14.6 °F -9.4 °F 78% 30.20 in 0.2 mi SE 4.6 mph - N/A   Haze
1:35 AM -2.2 °F -18.0 °F -7.6 °F 78% 30.20 in - SE 9.2 mph - N/A Snow Heavy Snow
1:55 AM -2.2 °F -12.5 °F -7.6 °F 78% 30.19 in - SSE 4.6 mph - N/A   Clear
2:15 AM -5.8 °F -18.4 °F -11.2 °F 77% 30.18 in - SSE 5.8 mph - N/A   Clear
2:35 AM -9.4 °F - -13.0 °F 84% 30.18 in - Calm Calm - N/A   Unknown
2:55 AM -7.6 °F - -11.2 °F 84% 30.18 in 4.0 mi Calm Calm - N/A   Haze
3:15 AM -7.6 °F - -13.0 °F 77% 30.17 in 10.0 mi Calm Calm - N/A   Clear
3:35 AM -9.4 °F - -13.0 °F 84% 30.17 in 5.0 mi Calm Calm - N/A   Haze
3:55 AM -7.6 °F - -13.0 °F 77% 30.16 in 1.5 mi Calm Calm - N/A   Haze
4:15 AM -7.6 °F - -13.0 °F 77% 30.16 in 2.0 mi Calm Calm - N/A   Haze
4:35 AM -9.4 °F - -13.0 °F 84% 30.15 in 0.5 mi Calm Calm - N/A   Haze
4:55 AM -7.6 °F - -13.0 °F 77% 30.15 in 0.2 mi Calm Calm - N/A   Haze
5:15 AM -7.6 °F - -13.0 °F 77% 30.15 in 0.2 mi Calm Calm - N/A   Haze
5:35 AM -9.4 °F - -13.0 °F 84% 30.14 in 2.5 mi Calm Calm - N/A   Haze
5:55 AM -9.4 °F - -13.0 °F 84% 30.14 in 1.0 mi Calm Calm - N/A   Haze
6:15 AM -7.6 °F - -13.0 °F 77% 30.14 in 0.5 mi Calm Calm - N/A   Haze
6:35 AM -7.6 °F - -13.0 °F 77% 30.14 in 5.0 mi Calm Calm - N/A   Haze
6:55 AM -7.6 °F -16.5 °F - N/A% 30.14 in 0.5 mi ESE 3.5 mph - N/A Fog Light Freezing Fog
7:15 AM -7.6 °F -20.6 °F -11.2 °F 84% 30.13 in 0.2 mi ESE 5.8 mph - N/A Snow Heavy Snow
7:35 AM -4.0 °F -14.6 °F -9.4 °F 78% 30.13 in - ESE 4.6 mph - N/A Snow Heavy Snow
7:55 AM -2.2 °F -12.5 °F -7.6 °F 78% 30.12 in - SSE 4.6 mph - N/A   Clear
8:15 AM -2.2 °F -10.4 °F -7.6 °F 78% 30.12 in - South 3.5 mph - N/A   Clear
8:35 AM -2.2 °F - -7.6 °F 78% 30.13 in 8.0 mi Calm Calm - N/A   Clear
8:55 AM -2.2 °F - -7.6 °F 78% 30.13 in 0.8 mi Calm Calm - N/A   Haze
9:15 AM -2.2 °F -10.4 °F -7.6 °F 78% 30.13 in 5.0 mi East 3.5 mph - N/A   Haze
9:35 AM -2.2 °F -12.5 °F -7.6 °F 78% 30.12 in 8.0 mi SE 4.6 mph - N/A Snow Light Snow
9:55 AM -0.4 °F -10.4 °F -4.0 °F 85% 30.12 in 9.0 mi SE 4.6 mph - N/A Snow Light Snow
10:15 AM 1.4 °F -9.9 °F -2.2 °F 85% 30.12 in 8.0 mi SE 5.8 mph - N/A Snow Light Snow
10:35 AM 5.0 °F -4.1 °F 1.4 °F 85% 30.12 in 9.0 mi SSE 4.6 mph - N/A Snow Light Snow
10:55 AM 8.6 °F 0.1 °F 5.0 °F 85% 30.11 in 9.0 mi ESE 4.6 mph - N/A Snow Light Snow
11:15 AM 12.2 °F 4.3 °F 10.4 °F 92% 30.11 in 9.0 mi SE 4.6 mph - N/A Snow Light Snow
11:35 AM 15.8 °F 5.1 °F 14.0 °F 93% 30.11 in 10.0 mi SE 8.1 mph - N/A Snow Light Snow
11:55 AM 15.8 °F 6.1 °F 14.0 °F 93% 30.11 in 10.0 mi SE 6.9 mph - N/A   Clear
12:15 PM 17.6 °F 8.2 °F 15.8 °F 93% 30.11 in 10.0 mi SE 6.9 mph - N/A   Clear
12:35 PM 17.6 °F 8.2 °F 15.8 °F 93% 30.11 in 10.0 mi SE 6.9 mph - N/A   Clear
12:55 PM 19.4 °F 11.5 °F 17.6 °F 93% 30.11 in 10.0 mi ESE 5.8 mph - N/A   Clear
1:15 PM 19.4 °F 11.5 °F 17.6 °F 93% 30.11 in 10.0 mi ESE 5.8 mph - N/A   Clear
1:35 PM 21.2 °F 12.6 °F 15.8 °F 80% 30.11 in 10.0 mi ESE 6.9 mph - N/A   Clear
1:55 PM 23.0 °F 15.8 °F 15.8 °F 74% 30.11 in 10.0 mi East 5.8 mph - N/A   Clear
2:15 PM 23.0 °F 15.8 °F 15.8 °F 74% 30.11 in 10.0 mi East 5.8 mph - N/A   Clear
2:35 PM 23.0 °F 14.7 °F 17.6 °F 80% 30.11 in 10.0 mi East 6.9 mph - N/A   Clear
2:55 PM 24.8 °F 16.1 °F 17.6 °F 74% 30.10 in 10.0 mi East 8.1 mph - N/A   Clear
3:15 PM 24.8 °F 16.1 °F 17.6 °F 74% 30.10 in 10.0 mi ESE 8.1 mph - N/A   Clear
3:35 PM 26.6 °F 18.2 °F 19.4 °F 74% 30.10 in 10.0 mi ESE 8.1 mph - N/A   Clear
3:55 PM 26.6 °F 17.5 °F 19.4 °F 74% 30.09 in 10.0 mi ESE 9.2 mph - N/A   Clear
4:15 PM 26.6 °F 16.8 °F 19.4 °F 74% 30.09 in 10.0 mi ESE 10.4 mph - N/A   Clear
4:35 PM 24.8 °F 13.4 °F 19.4 °F 80% 30.09 in 10.0 mi SE 12.7 mph - N/A   Clear
4:55 PM 24.8 °F 14.6 °F 19.4 °F 80% 30.09 in 10.0 mi SE 10.4 mph - N/A   Clear
5:15 PM 24.8 °F 13.4 °F 19.4 °F 80% 30.09 in 10.0 mi SE 12.7 mph - N/A   Clear
5:35 PM 24.8 °F 14.6 °F 19.4 °F 80% 30.09 in 10.0 mi ESE 10.4 mph - N/A   Clear
5:55 PM 23.0 °F 12.4 °F 19.4 °F 86% 30.09 in 10.0 mi ESE 10.4 mph - N/A   Clear
6:15 PM 23.0 °F 12.4 °F 17.6 °F 80% 30.09 in 10.0 mi ESE 10.4 mph - N/A   Clear
6:35 PM 21.2 °F 9.5 °F 17.6 °F 86% 30.09 in 9.0 mi East 11.5 mph - N/A   Clear
6:55 PM 21.2 °F 10.9 °F 17.6 °F 86% 30.09 in 9.0 mi East 9.2 mph - N/A   Clear
7:15 PM 21.2 °F 10.1 °F 17.6 °F 86% 30.09 in 10.0 mi East 10.4 mph - N/A   Clear
7:35 PM 21.2 °F 12.6 °F 17.6 °F 86% 30.10 in 10.0 mi East 6.9 mph - N/A   Clear
7:55 PM 19.4 °F 7.2 °F 15.8 °F 86% 30.09 in 10.0 mi ESE 11.5 mph - N/A   Clear
8:15 PM 17.6 °F 5.0 °F 14.0 °F 86% 30.09 in 10.0 mi ESE 11.5 mph - N/A   Clear
8:35 PM 17.6 °F 7.3 °F 15.8 °F 93% 30.10 in 10.0 mi East 8.1 mph - N/A   Clear
8:55 PM 17.6 °F 9.3 °F 14.0 °F 86% 30.10 in 10.0 mi East 5.8 mph - N/A   Clear
9:15 PM 15.8 °F 7.2 °F 14.0 °F 93% 30.10 in 10.0 mi ENE 5.8 mph - N/A   Clear
9:35 PM 15.8 °F 3.4 °F 14.0 °F 93% 30.10 in 10.0 mi ENE 10.4 mph - N/A   Clear
9:55 PM 17.6 °F 5.7 °F 14.0 °F 86% 30.10 in 10.0 mi East 10.4 mph - N/A   Clear
10:15 PM 10.4 °F -1.5 °F 6.8 °F 85% 30.11 in 10.0 mi NE 8.1 mph - N/A   Clear
10:35 PM 14.0 °F 3.9 °F 12.2 °F 93% 30.11 in 10.0 mi ENE 6.9 mph - N/A   Clear
10:55 PM 10.4 °F 0.8 °F 6.8 °F 85% 30.11 in 10.0 mi ENE 5.8 mph - N/A   Clear
11:15 PM 8.6 °F -1.3 °F 5.0 °F 85% 30.11 in 10.0 mi ESE 5.8 mph - N/A   Clear
11:35 PM 15.8 °F 6.1 °F 14.0 °F 93% 30.10 in 10.0 mi SE 6.9 mph - N/A   Clear
11:55 PM 15.8 °F 6.1 °F 14.0 °F 93% 30.10 in 10.0 mi SE 6.9 mph - N/A   Clear